sat.trackr.live / text

‹ back to catalog

STARLINK-2236

NORAD 48582 · 2021-041AF

PAYLOAD ACTIVE UNKNOWN

§ Identity

Operator
Country
US
Launch date
2021-05-15
Launch site
AFETR
Launch vehicle
Mass (kg)
RCS (m²)

Purposes: comms

External: N2YO · Heavens-Above · Gunter

§ Orbital elements

Epoch: 2026-05-25T04:36:53.650368Z

Period
94.30 min
Inclination
53.0522°
Eccentricity
0.0001377
Mean motion
15.27037143 rev/d
Perigee alt
483.7 km
Apogee alt
485.6 km
Semi-major
6,862.8 km
B*
3.7526e-3
RAAN
109.1912°
Arg perigee
113.3164°
Mean anomaly
246.7979°
Rev number
27,728

§ Raw data

STARLINK-22361 48582U 21041AF  26145.19228762  .00101935  00000+0  37526-2 0  99932 48582  53.0522 109.1912 0001377 113.3164 246.7979 15.27037143277289

JSON: /api/v1/satellites/48582 · /tle

For live sub-satellite position, see the globe view (requires WebGL).

§ Visibility from observer

Set your observer location to see the next 7 days of passes ≥ 10°. The values pass through the URL so the page stays shareable.

No JS? Fill the form by hand. The geolocation button needs JavaScript.